History Data

Date (GMT-7:00) CPM ACPM uSv/h Latitude Longitude Altitude CO CO2 TVOC HCHO Air Pressure Temperature Humidity Type
2025-10-30 23:42:34 15 17.90 0.075000 41.649648 41.62752893 0 0 0 0 0 0 0 0 STD5.60
2025-10-30 23:37:31 21 19.00 0.105000 41.649648 41.62752893 0 0 0 0 0 0 0 0 STD5.60
2025-10-30 23:32:28 20 18.20 0.100000 41.649648 41.62752893 0 0 0 0 0 0 0 0 STD5.60
2025-10-30 23:27:26 23 16.50 0.115000 41.649648 41.62752893 0 0 0 0 0 0 0 0 STD5.60
2025-10-30 23:22:24 24 17.50 0.120000 41.649648 41.62752893 0 0 0 0 0 0 0 0 STD5.60
2025-10-30 23:17:21 20 18.60 0.100000 41.649648 41.62752893 0 0 0 0 0 0 0 0 STD5.60
2025-10-30 23:12:19 20 17.50 0.100000 41.649648 41.62752893 0 0 0 0 0 0 0 0 STD5.60
2025-10-30 23:07:17 16 16.50 0.080000 41.649648 41.62752893 0 0 0 0 0 0 0 0 STD5.60
2025-10-30 23:02:15 18 17.60 0.090000 41.649648 41.62752893 0 0 0 0 0 0 0 0 STD5.60
2025-10-30 22:57:13 20 17.90 0.100000 41.649648 41.62752893 0 0 0 0 0 0 0 0 STD5.60
2025-10-30 22:52:11 18 17.50 0.090000 41.649648 41.62752893 0 0 0 0 0 0 0 0 STD5.60
2025-10-30 22:47:08 12 16.80 0.060000 41.649648 41.62752893 0 0 0 0 0 0 0 0 STD5.60
2025-10-30 22:42:06 17 16.60 0.085000 41.649648 41.62752893 0 0 0 0 0 0 0 0 STD5.60
2025-10-30 22:37:02 17 17.30 0.085000 41.649648 41.62752893 0 0 0 0 0 0 0 0 STD5.60
2025-10-30 22:32:00 16 19.20 0.080000 41.649648 41.62752893 0 0 0 0 0 0 0 0 STD5.60
2025-10-30 22:26:58 12 21.10 0.060000 41.649648 41.62752893 0 0 0 0 0 0 0 0 STD5.60
2025-10-30 22:21:55 32 22.10 0.160000 41.649648 41.62752893 0 0 0 0 0 0 0 0 STD5.60
2025-10-30 22:16:54 26 20.40 0.130000 41.649648 41.62752893 0 0 0 0 0 0 0 0 STD5.60
2025-10-30 22:11:51 19 17.70 0.095000 41.649648 41.62752893 0 0 0 0 0 0 0 0 STD5.60
2025-10-30 22:06:49 21 17.20 0.105000 41.649648 41.62752893 0 0 0 0 0 0 0 0 STD5.60
2025-10-30 22:01:47 17 16.30 0.085000 41.649648 41.62752893 0 0 0 0 0 0 0 0 STD5.60
2025-10-30 21:56:45 18 18.10 0.090000 41.649648 41.62752893 0 0 0 0 0 0 0 0 STD5.60
2025-10-30 21:51:43 31 20.00 0.155000 41.649648 41.62752893 0 0 0 0 0 0 0 0 STD5.60
2025-10-30 21:46:41 22 18.20 0.110000 41.649648 41.62752893 0 0 0 0 0 0 0 0 STD5.60
2025-10-30 21:41:38 12 17.90 0.060000 41.649648 41.62752893 0 0 0 0 0 0 0 0 STD5.60
2025-10-30 21:36:34 13 19.70 0.065000 41.649648 41.62752893 0 0 0 0 0 0 0 0 STD5.60
2025-10-30 21:31:32 17 18.60 0.085000 41.649648 41.62752893 0 0 0 0 0 0 0 0 STD5.60
2025-10-30 21:26:30 16 17.00 0.080000 41.649648 41.62752893 0 0 0 0 0 0 0 0 STD5.60
2025-10-30 21:21:27 16 15.70 0.080000 41.649648 41.62752893 0 0 0 0 0 0 0 0 STD5.60
2025-10-30 21:16:25 15 15.70 0.075000 41.649648 41.62752893 0 0 0 0 0 0 0 0 STD5.60
2025-10-30 21:11:23 17 17.10 0.085000 41.649648 41.62752893 0 0 0 0 0 0 0 0 STD5.60
2025-10-30 21:06:21 16 18.10 0.080000 41.649648 41.62752893 0 0 0 0 0 0 0 0 STD5.60
2025-10-30 21:01:19 17 19.10 0.085000 41.649648 41.62752893 0 0 0 0 0 0 0 0 STD5.60
2025-10-30 20:56:17 14 18.30 0.070000 41.649648 41.62752893 0 0 0 0 0 0 0 0 STD5.60
2025-10-30 20:51:15 18 17.70 0.090000 41.649648 41.62752893 0 0 0 0 0 0 0 0 STD5.60
2025-10-30 20:46:12 10 20.40 0.050000 41.649648 41.62752893 0 0 0 0 0 0 0 0 STD5.60
2025-10-30 20:41:10 14 20.50 0.070000 41.649648 41.62752893 0 0 0 0 0 0 0 0 STD5.60
2025-10-30 20:36:06 12 16.80 0.060000 41.649648 41.62752893 0 0 0 0 0 0 0 0 STD5.60
2025-10-30 20:31:04 13 16.60 0.065000 41.649648 41.62752893 0 0 0 0 0 0 0 0 STD5.60
2025-10-30 20:26:02 16 19.20 0.080000 41.649648 41.62752893 0 0 0 0 0 0 0 0 STD5.60
2025-10-30 20:20:59 25 19.50 0.125000 41.649648 41.62752893 0 0 0 0 0 0 0 0 STD5.60
2025-10-30 20:15:57 25 18.80 0.125000 41.649648 41.62752893 0 0 0 0 0 0 0 0 STD5.60
2025-10-30 20:10:54 23 18.60 0.115000 41.649648 41.62752893 0 0 0 0 0 0 0 0 STD5.60
2025-10-30 20:05:53 17 16.90 0.085000 41.649648 41.62752893 0 0 0 0 0 0 0 0 STD5.60
2025-10-30 20:00:51 19 16.00 0.095000 41.649648 41.62752893 0 0 0 0 0 0 0 0 STD5.60
2025-10-30 19:55:49 16 15.60 0.080000 41.649648 41.62752893 0 0 0 0 0 0 0 0 STD5.60
2025-10-30 19:50:46 14 16.20 0.070000 41.649648 41.62752893 0 0 0 0 0 0 0 0 STD5.60
2025-10-30 19:45:44 13 17.50 0.065000 41.649648 41.62752893 0 0 0 0 0 0 0 0 STD5.60
2025-10-30 19:40:41 23 17.60 0.115000 41.649648 41.62752893 0 0 0 0 0 0 0 0 STD5.60
2025-10-30 19:35:37 27 17.90 0.135000 41.649648 41.62752893 0 0 0 0 0 0 0 0 STD5.60
2025-10-30 19:30:35 18 16.90 0.090000 41.649648 41.62752893 0 0 0 0 0 0 0 0 STD5.60
2025-10-30 19:25:34 19 16.40 0.095000 41.649648 41.62752893 0 0 0 0 0 0 0 0 STD5.60
2025-10-30 19:20:31 21 16.90 0.105000 41.649648 41.62752893 0 0 0 0 0 0 0 0 STD5.60
2025-10-30 19:15:29 19 17.20 0.095000 41.649648 41.62752893 0 0 0 0 0 0 0 0 STD5.60
2025-10-30 19:10:27 15 18.50 0.075000 41.649648 41.62752893 0 0 0 0 0 0 0 0 STD5.60
2025-10-30 19:05:24 20 19.20 0.100000 41.649648 41.62752893 0 0 0 0 0 0 0 0 STD5.60
2025-10-30 19:00:22 25 19.40 0.125000 41.649648 41.62752893 0 0 0 0 0 0 0 0 STD5.60
2025-10-30 18:55:20 18 17.90 0.090000 41.649648 41.62752893 0 0 0 0 0 0 0 0 STD5.60
2025-10-30 18:50:18 17 15.40 0.085000 41.649648 41.62752893 0 0 0 0 0 0 0 0 STD5.60
2025-10-30 18:45:16 17 15.50 0.085000 41.649648 41.62752893 0 0 0 0 0 0 0 0 STD5.60
2025-10-30 18:40:14 10 15.30 0.050000 41.649648 41.62752893 0 0 0 0 0 0 0 0 STD5.60
2025-10-30 18:35:09 13 16.30 0.065000 41.649648 41.62752893 0 0 0 0 0 0 0 0 STD5.60
2025-10-30 18:30:07 17 18.00 0.085000 41.649648 41.62752893 0 0 0 0 0 0 0 0 STD5.60
2025-10-30 18:25:05 10 17.10 0.050000 41.649648 41.62752893 0 0 0 0 0 0 0 0 STD5.60
2025-10-30 18:20:02 18 18.20 0.090000 41.649648 41.62752893 0 0 0 0 0 0 0 0 STD5.60
2025-10-30 18:15:01 20 17.80 0.100000 41.649648 41.62752893 0 0 0 0 0 0 0 0 STD5.60
2025-10-30 18:09:58 13 17.80 0.065000 41.649648 41.62752893 0 0 0 0 0 0 0 0 STD5.60
2025-10-30 18:04:56 17 19.80 0.085000 41.649648 41.62752893 0 0 0 0 0 0 0 0 STD5.60
2025-10-30 17:59:54 19 19.70 0.095000 41.649648 41.62752893 0 0 0 0 0 0 0 0 STD5.60
2025-10-30 17:54:52 26 17.90 0.130000 41.649648 41.62752893 0 0 0 0 0 0 0 0 STD5.60
2025-10-30 17:49:50 19 15.80 0.095000 41.649648 41.62752893 0 0 0 0 0 0 0 0 STD5.60
2025-10-30 17:44:47 14 17.50 0.070000 41.649648 41.62752893 0 0 0 0 0 0 0 0 STD5.60
2025-10-30 17:39:45 22 17.30 0.110000 41.649648 41.62752893 0 0 0 0 0 0 0 0 STD5.60
2025-10-30 17:34:41 15 15.60 0.075000 41.649648 41.62752893 0 0 0 0 0 0 0 0 STD5.60
2025-10-30 17:29:38 14 15.70 0.070000 41.649648 41.62752893 0 0 0 0 0 0 0 0 STD5.60
2025-10-30 17:24:36 12 15.50 0.060000 41.649648 41.62752893 0 0 0 0 0 0 0 0 STD5.60
2025-10-30 17:19:34 18 16.40 0.090000 41.649648 41.62752893 0 0 0 0 0 0 0 0 STD5.60
2025-10-30 17:14:32 19 16.70 0.095000 41.649648 41.62752893 0 0 0 0 0 0 0 0 STD5.60
2025-10-30 17:09:29 16 17.90 0.080000 41.649648 41.62752893 0 0 0 0 0 0 0 0 STD5.60
2025-10-30 17:04:27 25 16.70 0.125000 41.649648 41.62752893 0 0 0 0 0 0 0 0 STD5.60
2025-10-30 16:59:25 19 16.60 0.095000 41.649648 41.62752893 0 0 0 0 0 0 0 0 STD5.60
2025-10-30 16:54:23 21 18.00 0.105000 41.649648 41.62752893 0 0 0 0 0 0 0 0 STD5.60
2025-10-30 16:49:23 25 18.80 0.125000 41.649648 41.62752893 0 0 0 0 0 0 0 0 STD5.60
2025-10-30 16:44:18 19 18.60 0.095000 41.649648 41.62752893 0 0 0 0 0 0 0 0 STD5.60
2025-10-30 16:39:16 16 18.00 0.080000 41.649648 41.62752893 0 0 0 0 0 0 0 0 STD5.60
2025-10-30 16:34:12 17 18.80 0.085000 41.649648 41.62752893 0 0 0 0 0 0 0 0 STD5.60
2025-10-30 16:29:10 22 18.60 0.110000 41.649648 41.62752893 0 0 0 0 0 0 0 0 STD5.60
2025-10-30 16:24:08 17 18.30 0.085000 41.649648 41.62752893 0 0 0 0 0 0 0 0 STD5.60
2025-10-30 16:19:06 12 19.00 0.060000 41.649648 41.62752893 0 0 0 0 0 0 0 0 STD5.60
2025-10-30 16:14:04 23 20.40 0.115000 41.649648 41.62752893 0 0 0 0 0 0 0 0 STD5.60
2025-10-30 16:09:02 23 20.30 0.115000 41.649648 41.62752893 0 0 0 0 0 0 0 0 STD5.60
2025-10-30 16:04:00 19 18.70 0.095000 41.649648 41.62752893 0 0 0 0 0 0 0 0 STD5.60
2025-10-30 15:58:57 17 18.90 0.085000 41.649648 41.62752893 0 0 0 0 0 0 0 0 STD5.60
2025-10-30 15:53:56 27 19.10 0.135000 41.649648 41.62752893 0 0 0 0 0 0 0 0 STD5.60
2025-10-30 15:48:53 10 18.00 0.050000 41.649648 41.62752893 0 0 0 0 0 0 0 0 STD5.60
2025-10-30 15:43:51 17 18.20 0.085000 41.649648 41.62752893 0 0 0 0 0 0 0 0 STD5.60
2025-10-30 15:38:49 15 17.80 0.075000 41.649648 41.62752893 0 0 0 0 0 0 0 0 STD5.60
2025-10-30 15:33:45 15 17.00 0.075000 41.649648 41.62752893 0 0 0 0 0 0 0 0 STD5.60
2025-10-30 15:28:43 13 16.20 0.065000 41.649648 41.62752893 0 0 0 0 0 0 0 0 STD5.60
2025-10-30 15:23:41 20 15.40 0.100000 41.649648 41.62752893 0 0 0 0 0 0 0 0 STD5.60
2025-10-30 15:18:39 6 16.30 0.030000 41.649648 41.62752893 0 0 0 0 0 0 0 0 STD5.60
2025-10-30 15:13:37 19 16.60 0.095000 41.649648 41.62752893 0 0 0 0 0 0 0 0 STD5.60
2025-10-30 15:08:34 20 19.30 0.100000 41.649648 41.62752893 0 0 0 0 0 0 0 0 STD5.60
2025-10-30 15:03:32 21 20.70 0.105000 41.649648 41.62752893 0 0 0 0 0 0 0 0 STD5.60
2025-10-30 14:58:30 13 17.80 0.065000 41.649648 41.62752893 0 0 0 0 0 0 0 0 STD5.60
2025-10-30 14:53:28 17 17.10 0.085000 41.649648 41.62752893 0 0 0 0 0 0 0 0 STD5.60
2025-10-30 14:48:25 14 17.30 0.070000 41.649648 41.62752893 0 0 0 0 0 0 0 0 STD5.60
2025-10-30 14:43:23 14 17.70 0.070000 41.649648 41.62752893 0 0 0 0 0 0 0 0 STD5.60
2025-10-30 14:38:21 15 16.90 0.075000 41.649648 41.62752893 0 0 0 0 0 0 0 0 STD5.60
2025-10-30 14:33:17 12 17.10 0.060000 41.649648 41.62752893 0 0 0 0 0 0 0 0 STD5.60
2025-10-30 14:28:16 17 18.50 0.085000 41.649648 41.62752893 0 0 0 0 0 0 0 0 STD5.60
2025-10-30 14:23:13 20 18.30 0.100000 41.649648 41.62752893 0 0 0 0 0 0 0 0 STD5.60
2025-10-30 14:18:11 22 16.80 0.110000 41.649648 41.62752893 0 0 0 0 0 0 0 0 STD5.60
2025-10-30 14:13:09 17 16.90 0.085000 41.649648 41.62752893 0 0 0 0 0 0 0 0 STD5.60
2025-10-30 14:08:07 17 19.10 0.085000 41.649648 41.62752893 0 0 0 0 0 0 0 0 STD5.60
2025-10-30 14:03:04 18 19.80 0.090000 41.649648 41.62752893 0 0 0 0 0 0 0 0 STD5.60
2025-10-30 13:58:02 24 19.90 0.120000 41.649648 41.62752893 0 0 0 0 0 0 0 0 STD5.60
2025-10-30 13:53:00 26 19.90 0.130000 41.649648 41.62752893 0 0 0 0 0 0 0 0 STD5.60
2025-10-30 13:47:57 22 19.30 0.110000 41.649648 41.62752893 0 0 0 0 0 0 0 0 STD5.60
2025-10-30 13:42:55 20 19.40 0.100000 41.649648 41.62752893 0 0 0 0 0 0 0 0 STD5.60
2025-10-30 13:37:53 15 19.40 0.075000 41.649648 41.62752893 0 0 0 0 0 0 0 0 STD5.60
2025-10-30 13:32:50 17 18.80 0.085000 41.649648 41.62752893 0 0 0 0 0 0 0 0 STD5.60
2025-10-30 13:27:48 14 18.60 0.070000 41.649648 41.62752893 0 0 0 0 0 0 0 0 STD5.60
2025-10-30 13:22:45 21 18.70 0.105000 41.649648 41.62752893 0 0 0 0 0 0 0 0 STD5.60
2025-10-30 13:17:43 17 17.70 0.085000 41.649648 41.62752893 0 0 0 0 0 0 0 0 STD5.60
2025-10-30 13:12:41 19 18.40 0.095000 41.649648 41.62752893 0 0 0 0 0 0 0 0 STD5.60
2025-10-30 13:07:38 22 18.60 0.110000 41.649648 41.62752893 0 0 0 0 0 0 0 0 STD5.60
2025-10-30 13:02:36 16 17.80 0.080000 41.649648 41.62752893 0 0 0 0 0 0 0 0 STD5.60
2025-10-30 12:57:34 16 18.90 0.080000 41.649648 41.62752893 0 0 0 0 0 0 0 0 STD5.60
2025-10-30 12:52:32 26 17.30 0.130000 41.649648 41.62752893 0 0 0 0 0 0 0 0 STD5.60
2025-10-30 12:47:30 12 14.80 0.060000 41.649648 41.62752893 0 0 0 0 0 0 0 0 STD5.60
2025-10-30 12:42:28 9 16.90 0.045000 41.649648 41.62752893 0 0 0 0 0 0 0 0 STD5.60
2025-10-30 12:37:26 19 18.90 0.095000 41.649648 41.62752893 0 0 0 0 0 0 0 0 STD5.60
2025-10-30 12:32:20 18 16.90 0.090000 41.649648 41.62752893 0 0 0 0 0 0 0 0 STD5.60
2025-10-30 12:27:18 17 14.30 0.085000 41.649648 41.62752893 0 0 0 0 0 0 0 0 STD5.60
2025-10-30 12:22:16 12 15.00 0.060000 41.649648 41.62752893 0 0 0 0 0 0 0 0 STD5.60
2025-10-30 12:17:13 21 15.40 0.105000 41.649648 41.62752893 0 0 0 0 0 0 0 0 STD5.60
2025-10-30 12:12:11 14 16.70 0.070000 41.649648 41.62752893 0 0 0 0 0 0 0 0 STD5.60
2025-10-30 12:07:09 12 19.50 0.060000 41.649648 41.62752893 0 0 0 0 0 0 0 0 STD5.60
2025-10-30 12:02:07 16 18.10 0.080000 41.649648 41.62752893 0 0 0 0 0 0 0 0 STD5.60
2025-10-30 11:57:05 14 16.60 0.070000 41.649648 41.62752893 0 0 0 0 0 0 0 0 STD5.60
2025-10-30 11:52:03 16 15.20 0.080000 41.649648 41.62752893 0 0 0 0 0 0 0 0 STD5.60
2025-10-30 11:47:00 10 15.30 0.050000 41.649648 41.62752893 0 0 0 0 0 0 0 0 STD5.60
2025-10-30 11:41:58 13 12.90 0.065000 41.649648 41.62752893 0 0 0 0 0 0 0 0 STD5.60
2025-10-30 11:36:56 23 4.50 0.115000 41.649648 41.62752893 0 0 0 0 0 0 0 0 STD5.60
2025-10-30 11:31:52 16 17.40 0.080000 41.649648 41.62752893 0 0 0 0 0 0 0 0 STD5.60
2025-10-30 11:26:50 17 17.10 0.085000 41.649648 41.62752893 0 0 0 0 0 0 0 0 STD5.60
2025-10-30 11:21:47 14 16.80 0.070000 41.649648 41.62752893 0 0 0 0 0 0 0 0 STD5.60
2025-10-30 11:11:43 14 17.20 0.070000 41.649648 41.62752893 0 0 0 0 0 0 0 0 STD5.60
2025-10-30 11:06:41 15 16.20 0.075000 41.649648 41.62752893 0 0 0 0 0 0 0 0 STD5.60
2025-10-30 11:01:39 17 18.00 0.085000 41.649648 41.62752893 0 0 0 0 0 0 0 0 STD5.60
2025-10-30 10:56:37 20 19.90 0.100000 41.649648 41.62752893 0 0 0 0 0 0 0 0 STD5.60
2025-10-30 10:51:35 23 21.00 0.115000 41.649648 41.62752893 0 0 0 0 0 0 0 0 STD5.60
2025-10-30 10:46:33 19 20.50 0.095000 41.649648 41.62752893 0 0 0 0 0 0 0 0 STD5.60
2025-10-30 10:41:31 19 19.10 0.095000 41.649648 41.62752893 0 0 0 0 0 0 0 0 STD5.60
2025-10-30 10:36:28 13 17.20 0.065000 41.649648 41.62752893 0 0 0 0 0 0 0 0 STD5.60
2025-10-30 10:31:25 18 15.60 0.090000 41.649648 41.62752893 0 0 0 0 0 0 0 0 STD5.60
2025-10-30 10:26:23 14 15.50 0.070000 41.649648 41.62752893 0 0 0 0 0 0 0 0 STD5.60
2025-10-30 10:21:20 14 18.80 0.070000 41.649648 41.62752893 0 0 0 0 0 0 0 0 STD5.60
2025-10-30 10:16:18 26 19.30 0.130000 41.649648 41.62752893 0 0 0 0 0 0 0 0 STD5.60
2025-10-30 10:11:16 15 17.00 0.075000 41.649648 41.62752893 0 0 0 0 0 0 0 0 STD5.60
2025-10-30 10:06:14 16 17.10 0.080000 41.649648 41.62752893 0 0 0 0 0 0 0 0 STD5.60
2025-10-30 10:01:12 20 17.80 0.100000 41.649648 41.62752893 0 0 0 0 0 0 0 0 STD5.60
2025-10-30 09:56:10 22 18.40 0.110000 41.649648 41.62752893 0 0 0 0 0 0 0 0 STD5.60
2025-10-30 09:51:08 16 17.80 0.080000 41.649648 41.62752893 0 0 0 0 0 0 0 0 STD5.60
2025-10-30 09:46:08 16 17.10 0.080000 41.649648 41.62752893 0 0 0 0 0 0 0 0 STD5.60
2025-10-30 09:41:04 19 17.90 0.095000 41.649648 41.62752893 0 0 0 0 0 0 0 0 STD5.60
2025-10-30 09:36:01 20 18.90 0.100000 41.649648 41.62752893 0 0 0 0 0 0 0 0 STD5.60
2025-10-30 09:30:56 15 20.30 0.075000 41.649648 41.62752893 0 0 0 0 0 0 0 0 STD5.60
2025-10-30 09:25:54 22 18.80 0.110000 41.649648 41.62752893 0 0 0 0 0 0 0 0 STD5.60
2025-10-30 09:20:52 17 17.30 0.085000 41.649648 41.62752893 0 0 0 0 0 0 0 0 STD5.60
2025-10-30 09:15:50 18 18.90 0.090000 41.649648 41.62752893 0 0 0 0 0 0 0 0 STD5.60
2025-10-30 09:10:47 25 15.60 0.125000 41.649648 41.62752893 0 0 0 0 0 0 0 0 STD5.60
2025-10-30 09:05:46 15 15.80 0.075000 41.649648 41.62752893 0 0 0 0 0 0 0 0 STD5.60
2025-10-30 09:00:44 21 18.70 0.105000 41.649648 41.62752893 0 0 0 0 0 0 0 0 STD5.60
2025-10-30 08:55:42 14 16.70 0.070000 41.649648 41.62752893 0 0 0 0 0 0 0 0 STD5.60
2025-10-30 08:50:39 23 17.00 0.115000 41.649648 41.62752893 0 0 0 0 0 0 0 0 STD5.60
2025-10-30 08:45:37 20 16.90 0.100000 41.649648 41.62752893 0 0 0 0 0 0 0 0 STD5.60
2025-10-30 08:40:35 18 18.20 0.090000 41.649648 41.62752893 0 0 0 0 0 0 0 0 STD5.60
2025-10-30 08:35:33 14 18.80 0.070000 41.649648 41.62752893 0 0 0 0 0 0 0 0 STD5.60
2025-10-30 08:30:29 20 18.00 0.100000 41.649648 41.62752893 0 0 0 0 0 0 0 0 STD5.60
2025-10-30 08:25:27 21 16.50 0.105000 41.649648 41.62752893 0 0 0 0 0 0 0 0 STD5.60
2025-10-30 08:20:24 8 14.80 0.040000 41.649648 41.62752893 0 0 0 0 0 0 0 0 STD5.60
2025-10-30 08:15:23 18 17.80 0.090000 41.649648 41.62752893 0 0 0 0 0 0 0 0 STD5.60
2025-10-30 08:10:21 25 19.50 0.125000 41.649648 41.62752893 0 0 0 0 0 0 0 0 STD5.60
2025-10-30 08:05:18 12 17.40 0.060000 41.649648 41.62752893 0 0 0 0 0 0 0 0 STD5.60
2025-10-30 08:00:16 17 17.20 0.085000 41.649648 41.62752893 0 0 0 0 0 0 0 0 STD5.60
2025-10-30 07:55:14 20 18.80 0.100000 41.649648 41.62752893 0 0 0 0 0 0 0 0 STD5.60
2025-10-30 07:50:11 18 18.10 0.090000 41.649648 41.62752893 0 0 0 0 0 0 0 0 STD5.60
2025-10-30 07:45:09 20 16.20 0.100000 41.649648 41.62752893 0 0 0 0 0 0 0 0 STD5.60
2025-10-30 07:40:07 15 17.30 0.075000 41.649648 41.62752893 0 0 0 0 0 0 0 0 STD5.60
2025-10-30 07:35:05 19 18.40 0.095000 41.649648 41.62752893 0 0 0 0 0 0 0 0 STD5.60
2025-10-30 07:30:01 20 18.40 0.100000 41.649648 41.62752893 0 0 0 0 0 0 0 0 STD5.60
2025-10-30 07:24:59 17 19.40 0.085000 41.649648 41.62752893 0 0 0 0 0 0 0 0 STD5.60
2025-10-30 07:19:56 24 19.00 0.120000 41.649648 41.62752893 0 0 0 0 0 0 0 0 STD5.60
2025-10-30 07:14:54 19 17.70 0.095000 41.649648 41.62752893 0 0 0 0 0 0 0 0 STD5.60
2025-10-30 07:09:52 19 18.40 0.095000 41.649648 41.62752893 0 0 0 0 0 0 0 0 STD5.60
2025-10-30 07:04:49 13 18.00 0.065000 41.649648 41.62752893 0 0 0 0 0 0 0 0 STD5.60
2025-10-30 06:59:47 13 16.40 0.065000 41.649648 41.62752893 0 0 0 0 0 0 0 0 STD5.60
2025-10-30 06:54:45 17 16.20 0.085000 41.649648 41.62752893 0 0 0 0 0 0 0 0 STD5.60
2025-10-30 06:49:43 17 16.90 0.085000 41.649648 41.62752893 0 0 0 0 0 0 0 0 STD5.60
2025-10-30 06:44:41 17 19.50 0.085000 41.649648 41.62752893 0 0 0 0 0 0 0 0 STD5.60
2025-10-30 06:39:38 22 19.20 0.110000 41.649648 41.62752893 0 0 0 0 0 0 0 0 STD5.60
2025-10-30 06:34:36 21 18.20 0.105000 41.649648 41.62752893 0 0 0 0 0 0 0 0 STD5.60
2025-10-30 06:29:31 26 19.00 0.130000 41.649648 41.62752893 0 0 0 0 0 0 0 0 STD5.60
2025-10-30 06:24:29 21 15.80 0.105000 41.649648 41.62752893 0 0 0 0 0 0 0 0 STD5.60
2025-10-30 06:19:26 10 15.90 0.050000 41.649648 41.62752893 0 0 0 0 0 0 0 0 STD5.60
2025-10-30 06:14:24 22 21.50 0.110000 41.649648 41.62752893 0 0 0 0 0 0 0 0 STD5.60
2025-10-30 06:09:22 31 22.20 0.155000 41.649648 41.62752893 0 0 0 0 0 0 0 0 STD5.60
2025-10-30 06:04:21 18 19.30 0.090000 41.649648 41.62752893 0 0 0 0 0 0 0 0 STD5.60
2025-10-30 05:59:18 17 18.50 0.085000 41.649648 41.62752893 0 0 0 0 0 0 0 0 STD5.60
2025-10-30 05:54:16 19 20.20 0.095000 41.649648 41.62752893 0 0 0 0 0 0 0 0 STD5.60
2025-10-30 05:49:13 17 19.60 0.085000 41.649648 41.62752893 0 0 0 0 0 0 0 0 STD5.60
2025-10-30 05:44:12 19 17.40 0.095000 41.649648 41.62752893 0 0 0 0 0 0 0 0 STD5.60
2025-10-30 05:39:09 18 17.50 0.090000 41.649648 41.62752893 0 0 0 0 0 0 0 0 STD5.60
2025-10-30 05:34:07 17 18.70 0.085000 41.649648 41.62752893 0 0 0 0 0 0 0 0 STD5.60
2025-10-30 05:29:03 17 17.60 0.085000 41.649648 41.62752893 0 0 0 0 0 0 0 0 STD5.60
2025-10-30 05:24:01 10 15.80 0.050000 41.649648 41.62752893 0 0 0 0 0 0 0 0 STD5.60
2025-10-30 05:18:58 8 16.40 0.040000 41.649648 41.62752893 0 0 0 0 0 0 0 0 STD5.60
2025-10-30 05:13:57 17 16.50 0.085000 41.649648 41.62752893 0 0 0 0 0 0 0 0 STD5.60
2025-10-30 05:08:55 12 18.10 0.060000 41.649648 41.62752893 0 0 0 0 0 0 0 0 STD5.60
2025-10-30 05:03:52 19 18.80 0.095000 41.649648 41.62752893 0 0 0 0 0 0 0 0 STD5.60
2025-10-30 04:58:50 17 17.00 0.085000 41.649648 41.62752893 0 0 0 0 0 0 0 0 STD5.60
2025-10-30 04:53:48 15 17.80 0.075000 41.649648 41.62752893 0 0 0 0 0 0 0 0 STD5.60
2025-10-30 04:48:46 17 18.40 0.085000 41.649648 41.62752893 0 0 0 0 0 0 0 0 STD5.60
2025-10-30 04:43:44 17 18.40 0.085000 41.649648 41.62752893 0 0 0 0 0 0 0 0 STD5.60
2025-10-30 04:38:42 20 17.90 0.100000 41.649648 41.62752893 0 0 0 0 0 0 0 0 STD5.60
2025-10-30 04:33:40 12 17.40 0.060000 41.649648 41.62752893 0 0 0 0 0 0 0 0 STD5.60
2025-10-30 04:28:35 18 18.40 0.090000 41.649648 41.62752893 0 0 0 0 0 0 0 0 STD5.60
2025-10-30 04:23:33 21 18.70 0.105000 41.649648 41.62752893 0 0 0 0 0 0 0 0 STD5.60
2025-10-30 04:18:31 24 15.90 0.120000 41.649648 41.62752893 0 0 0 0 0 0 0 0 STD5.60
2025-10-30 04:13:29 19 15.30 0.095000 41.649648 41.62752893 0 0 0 0 0 0 0 0 STD5.60
2025-10-30 04:08:27 20 17.80 0.100000 41.649648 41.62752893 0 0 0 0 0 0 0 0 STD5.60
2025-10-30 04:03:24 20 17.50 0.100000 41.649648 41.62752893 0 0 0 0 0 0 0 0 STD5.60
2025-10-30 03:58:22 19 15.90 0.095000 41.649648 41.62752893 0 0 0 0 0 0 0 0 STD5.60
2025-10-30 03:53:20 21 16.50 0.105000 41.649648 41.62752893 0 0 0 0 0 0 0 0 STD5.60
2025-10-30 03:48:17 9 15.80 0.045000 41.649648 41.62752893 0 0 0 0 0 0 0 0 STD5.60
2025-10-30 03:43:16 12 16.80 0.060000 41.649648 41.62752893 0 0 0 0 0 0 0 0 STD5.60
2025-10-30 03:38:13 16 18.30 0.080000 41.649648 41.62752893 0 0 0 0 0 0 0 0 STD5.60
2025-10-30 03:33:11 16 17.20 0.080000 41.649648 41.62752893 0 0 0 0 0 0 0 0 STD5.60
2025-10-30 03:28:07 23 17.30 0.115000 41.649648 41.62752893 0 0 0 0 0 0 0 0 STD5.60
2025-10-30 03:23:05 19 19.70 0.095000 41.649648 41.62752893 0 0 0 0 0 0 0 0 STD5.60
2025-10-30 03:18:03 21 20.60 0.105000 41.649648 41.62752893 0 0 0 0 0 0 0 0 STD5.60
2025-10-30 03:13:01 19 19.90 0.095000 41.649648 41.62752893 0 0 0 0 0 0 0 0 STD5.60
2025-10-30 03:07:58 12 19.30 0.060000 41.649648 41.62752893 0 0 0 0 0 0 0 0 STD5.60
2025-10-30 03:02:57 21 20.70 0.105000 41.649648 41.62752893 0 0 0 0 0 0 0 0 STD5.60
2025-10-30 02:57:54 27 21.00 0.135000 41.649648 41.62752893 0 0 0 0 0 0 0 0 STD5.60
2025-10-30 02:52:52 18 18.50 0.090000 41.649648 41.62752893 0 0 0 0 0 0 0 0 STD5.60
2025-10-30 02:47:50 19 18.30 0.095000 41.649648 41.62752893 0 0 0 0 0 0 0 0 STD5.60
2025-10-30 02:42:48 23 18.70 0.115000 41.649648 41.62752893 0 0 0 0 0 0 0 0 STD5.60
2025-10-30 02:37:46 18 17.90 0.090000 41.649648 41.62752893 0 0 0 0 0 0 0 0 STD5.60
2025-10-30 02:32:44 15 17.50 0.075000 41.649648 41.62752893 0 0 0 0 0 0 0 0 STD5.60
2025-10-30 02:27:40 19 16.10 0.095000 41.649648 41.62752893 0 0 0 0 0 0 0 0 STD5.60
2025-10-30 02:22:37 15 16.20 0.075000 41.649648 41.62752893 0 0 0 0 0 0 0 0 STD5.60
2025-10-30 02:17:35 14 18.50 0.070000 41.649648 41.62752893 0 0 0 0 0 0 0 0 STD5.60
2025-10-30 02:12:33 21 16.90 0.105000 41.649648 41.62752893 0 0 0 0 0 0 0 0 STD5.60
2025-10-30 02:07:31 6 16.00 0.030000 41.649648 41.62752893 0 0 0 0 0 0 0 0 STD5.60
2025-10-30 02:02:28 14 16.70 0.070000 41.649648 41.62752893 0 0 0 0 0 0 0 0 STD5.60
2025-10-30 01:57:27 16 18.10 0.080000 41.649648 41.62752893 0 0 0 0 0 0 0 0 STD5.60
2025-10-30 01:52:24 24 19.00 0.120000 41.649648 41.62752893 0 0 0 0 0 0 0 0 STD5.60
2025-10-30 01:47:22 18 18.60 0.090000 41.649648 41.62752893 0 0 0 0 0 0 0 0 STD5.60
2025-10-30 01:42:20 16 18.30 0.080000 41.649648 41.62752893 0 0 0 0 0 0 0 0 STD5.60
2025-10-30 01:37:18 17 17.20 0.085000 41.649648 41.62752893 0 0 0 0 0 0 0 0 STD5.60
2025-10-30 01:32:16 8 16.30 0.040000 41.649648 41.62752893 0 0 0 0 0 0 0 0 STD5.60
2025-10-30 01:27:12 17 16.60 0.085000 41.649648 41.62752893 0 0 0 0 0 0 0 0 STD5.60
2025-10-30 01:22:10 18 18.30 0.090000 41.649648 41.62752893 0 0 0 0 0 0 0 0 STD5.60
2025-10-30 01:17:08 19 18.50 0.095000 41.649648 41.62752893 0 0 0 0 0 0 0 0 STD5.60
2025-10-30 01:12:05 17 17.40 0.085000 41.649648 41.62752893 0 0 0 0 0 0 0 0 STD5.60
2025-10-30 01:07:03 17 18.80 0.085000 41.649648 41.62752893 0 0 0 0 0 0 0 0 STD5.60
2025-10-30 01:02:00 13 19.40 0.065000 41.649648 41.62752893 0 0 0 0 0 0 0 0 STD5.60
2025-10-30 00:56:58 18 18.20 0.090000 41.649648 41.62752893 0 0 0 0 0 0 0 0 STD5.60
2025-10-30 00:51:56 20 17.30 0.100000 41.649648 41.62752893 0 0 0 0 0 0 0 0 STD5.60
2025-10-30 00:46:54 14 16.80 0.070000 41.649648 41.62752893 0 0 0 0 0 0 0 0 STD5.60
2025-10-30 00:41:52 21 17.70 0.105000 41.649648 41.62752893 0 0 0 0 0 0 0 0 STD5.60
2025-10-30 00:36:50 19 17.60 0.095000 41.649648 41.62752893 0 0 0 0 0 0 0 0 STD5.60
2025-10-30 00:31:49 12 17.20 0.060000 41.649648 41.62752893 0 0 0 0 0 0 0 0 STD5.60
2025-10-30 00:26:42 17 18.00 0.085000 41.649648 41.62752893 0 0 0 0 0 0 0 0 STD5.60
2025-10-30 00:21:40 22 18.50 0.110000 41.649648 41.62752893 0 0 0 0 0 0 0 0 STD5.60
2025-10-30 00:16:38 21 20.10 0.105000 41.649648 41.62752893 0 0 0 0 0 0 0 0 STD5.60
2025-10-30 00:11:36 16 19.70 0.080000 41.649648 41.62752893 0 0 0 0 0 0 0 0 STD5.60
2025-10-30 00:06:33 19 18.10 0.095000 41.649648 41.62752893 0 0 0 0 0 0 0 0 STD5.60
2025-10-30 00:01:31 18 18.10 0.090000 41.649648 41.62752893 0 0 0 0 0 0 0 0 STD5.60
2025-10-29 23:56:29 15 19.00 0.075000 41.649648 41.62752893 0 0 0 0 0 0 0 0 STD5.60
2025-10-29 23:51:27 33 18.60 0.165000 41.649648 41.62752893 0 0 0 0 0 0 0 0 STD5.60
2025-10-29 23:46:25 14 17.40 0.070000 41.649648 41.62752893 0 0 0 0 0 0 0 0 STD5.60
2025-10-29 23:41:23 18 18.20 0.090000 41.649648 41.62752893 0 0 0 0 0 0 0 0 STD5.60
2025-10-29 23:36:20 12 18.00 0.060000 41.649648 41.62752893 0 0 0 0 0 0 0 0 STD5.60
2025-10-29 23:31:17 13 18.50 0.065000 41.649648 41.62752893 0 0 0 0 0 0 0 0 STD5.60
2025-10-29 23:26:14 19 20.50 0.095000 41.649648 41.62752893 0 0 0 0 0 0 0 0 STD5.60
2025-10-29 23:21:12 15 19.80 0.075000 41.649648 41.62752893 0 0 0 0 0 0 0 0 STD5.60
2025-10-29 23:16:10 19 17.40 0.095000 41.649648 41.62752893 0 0 0 0 0 0 0 0 STD5.60
2025-10-29 23:11:08 19 18.00 0.095000 41.649648 41.62752893 0 0 0 0 0 0 0 0 STD5.60
2025-10-29 23:06:05 16 18.10 0.080000 41.649648 41.62752893 0 0 0 0 0 0 0 0 STD5.60
2025-10-29 23:01:03 25 17.50 0.125000 41.649648 41.62752893 0 0 0 0 0 0 0 0 STD5.60
2025-10-29 22:56:01 16 18.30 0.080000 41.649648 41.62752893 0 0 0 0 0 0 0 0 STD5.60
2025-10-29 22:50:59 29 17.70 0.145000 41.649648 41.62752893 0 0 0 0 0 0 0 0 STD5.60
2025-10-29 22:45:57 13 17.80 0.065000 41.649648 41.62752893 0 0 0 0 0 0 0 0 STD5.60
2025-10-29 22:40:55 16 17.20 0.080000 41.649648 41.62752893 0 0 0 0 0 0 0 0 STD5.60
2025-10-29 22:35:52 13 16.90 0.065000 41.649648 41.62752893 0 0 0 0 0 0 0 0 STD5.60
2025-10-29 22:30:37 16 19.30 0.080000 41.649648 41.62752893 0 0 0 0 0 0 0 0 STD5.60
Geiger Counter World Map       A real time radiation map.     Copyright 2015 All rights reserved.